When you browse on this site, cookies collect data to enhance your experience and personalize the content and advertising you see.
Visit our Privacy Policy to learn more. By continuing to use the site, you agree to this use of cookies and data.
  • In Latvia
  • List of Countries
  • For 7 days
  • Water Temperature
  • Satellite Maps
  • Weather Map
  • Weather Widgets
  • user-avatar
    Login

    Hourly Weather Uige

    Today, 18 June, Tuesday

    Time Temperature Precipitation Wind Pressure Humidity
    00:00 +19°C° 0 mm 0 mps 693 mmHg 61%
    01:00 +20°C° 0 mm 1 mps 693 mmHg 62%
    02:00 +20°C° 0 mm 1 mps 693 mmHg 61%
    03:00 +20°C° 0 mm 1 mps 692 mmHg 60%
    04:00 +19°C° 0 mm 1 mps 692 mmHg 60%
    05:00 +20°C° 0 mm 1 mps 692 mmHg 59%
    06:00 +20°C° 0 mm 1 mps 693 mmHg 58%
    07:00 +20°C° 0 mm 1 mps 693 mmHg 57%
    08:00 +24°C° 0 mm 2 mps 694 mmHg 48%
    09:00 +27°C° 0 mm 2 mps 694 mmHg 38%
    10:00 +31°C° 0 mm 2 mps 695 mmHg 28%
    11:00 +32°C° 0 mm 2 mps 695 mmHg 26%
    12:00 +34°C° 0 mm 1 mps 694 mmHg 23%
    13:00 +35°C° 0 mm 1 mps 694 mmHg 20%
    14:00 +34°C° 0 mm 1 mps 693 mmHg 21%
    15:00 +34°C° 0 mm 1 mps 692 mmHg 22%
    16:00 +33°C° 0 mm 1 mps 692 mmHg 23%
    17:00 +28°C° 0 mm 0 mps 692 mmHg 31%
    18:00 +25°C° 0 mm 0 mps 692 mmHg 39%
    19:00 +21°C° 0 mm 0 mps 692 mmHg 48%
    20:00 +21°C° 0 mm 0 mps 692 mmHg 50%
    21:00 +22°C° 0 mm 1 mps 693 mmHg 53%
    22:00 +22°C° 0 mm 1 mps 693 mmHg 56%
    23:00 +21°C° 0 mm 1 mps 693 mmHg 58%

    Tomorrow, 19 June, Wednesday

    Time Temperature Precipitation Wind Pressure Humidity
    00:00 +21°C° 0 mm 1 mps 693 mmHg 59%
    01:00 +20°C° 0 mm 1 mps 693 mmHg 61%
    02:00 +20°C° 0 mm 1 mps 692 mmHg 62%
    03:00 +19°C° 0 mm 1 mps 692 mmHg 62%
    04:00 +19°C° 0 mm 1 mps 692 mmHg 63%
    05:00 +19°C° 0 mm 1 mps 692 mmHg 62%
    06:00 +19°C° 0 mm 1 mps 693 mmHg 61%
    07:00 +20°C° 0 mm 1 mps 693 mmHg 60%
    08:00 +23°C° 0 mm 2 mps 694 mmHg 49%
    09:00 +27°C° 0 mm 2 mps 694 mmHg 38%
    10:00 +30°C° 0 mm 2 mps 695 mmHg 27%
    11:00 +32°C° 0 mm 2 mps 695 mmHg 25%
    12:00 +33°C° 0 mm 1 mps 694 mmHg 23%
    13:00 +35°C° 0 mm 1 mps 694 mmHg 21%
    14:00 +35°C° 0 mm 1 mps 693 mmHg 21%
    15:00 +34°C° 0 mm 1 mps 693 mmHg 22%
    16:00 +34°C° 0 mm 1 mps 692 mmHg 23%
    17:00 +31°C° 0 mm 1 mps 692 mmHg 29%
    18:00 +27°C° 0 mm 1 mps 692 mmHg 35%
    19:00 +24°C° 0 mm 1 mps 692 mmHg 42%
    20:00 +24°C° 0 mm 1 mps 692 mmHg 43%
    21:00 +23°C° 0 mm 1 mps 693 mmHg 44%
    22:00 +22°C° 0 mm 1 mps 693 mmHg 46%
    23:00 +22°C° 0 mm 1 mps 693 mmHg 46%

    Day after tomorrow, 20 June, Thursday

    Time Temperature Precipitation Wind Pressure Humidity
    00:00 +21°C° 0 mm 1 mps 693 mmHg 47%
    01:00 +21°C° 0 mm 1 mps 693 mmHg 48%
    02:00 +20°C° 0 mm 1 mps 692 mmHg 49%
    03:00 +20°C° 0 mm 1 mps 692 mmHg 50%
    04:00 +20°C° 0 mm 1 mps 692 mmHg 51%
    05:00 +20°C° 0 mm 1 mps 692 mmHg 51%
    06:00 +20°C° 0 mm 1 mps 693 mmHg 51%
    07:00 +20°C° 0 mm 1 mps 693 mmHg 52%
    08:00 +24°C° 0 mm 2 mps 694 mmHg 43%
    09:00 +28°C° 0 mm 2 mps 694 mmHg 34%
    10:00 +31°C° 0 mm 2 mps 695 mmHg 25%
    11:00 +34°C° 0 mm 2 mps 695 mmHg 23%
    12:00 +34°C° 0 mm 1 mps 694 mmHg 22%
    13:00 +36°C° 0 mm 1 mps 694 mmHg 20%
    14:00 +35°C° 0 mm 1 mps 693 mmHg 21%
    15:00 +35°C° 0 mm 1 mps 693 mmHg 21%
    16:00 +34°C° 0 mm 1 mps 692 mmHg 22%
    17:00 +29°C° 0 mm 0 mps 692 mmHg 29%
    18:00 +26°C° 0 mm 0 mps 692 mmHg 35%
    19:00 +22°C° 0 mm 0 mps 692 mmHg 42%
    20:00 +21°C° 0 mm 0 mps 692 mmHg 46%
    21:00 +21°C° 0 mm 0 mps 693 mmHg 49%
    22:00 +20°C° 0 mm 0 mps 693 mmHg 53%
    23:00 +19°C° 0 mm 0 mps 693 mmHg 53%

    21 June, Friday

    Time Temperature Precipitation Wind Pressure Humidity
    00:00 +19°C° 0 mm 0 mps 693 mmHg 54%
    01:00 +20°C° 0 mm 1 mps 693 mmHg 55%
    02:00 +20°C° 0 mm 1 mps 692 mmHg 56%
    03:00 +20°C° 0 mm 1 mps 692 mmHg 56%
    04:00 +19°C° 0 mm 1 mps 692 mmHg 56%
    05:00 +20°C° 0 mm 1 mps 692 mmHg 56%
    06:00 +20°C° 0 mm 1 mps 693 mmHg 55%
    07:00 +20°C° 0 mm 1 mps 693 mmHg 55%
    08:00 +24°C° 0 mm 1 mps 694 mmHg 46%
    09:00 +28°C° 0 mm 1 mps 694 mmHg 37%
    10:00 +31°C° 0 mm 1 mps 695 mmHg 28%
    11:00 +33°C° 0 mm 1 mps 694 mmHg 25%
    12:00 +35°C° 0 mm 1 mps 694 mmHg 21%
    13:00 +36°C° 0 mm 1 mps 694 mmHg 18%
    14:00 +36°C° 0 mm 1 mps 693 mmHg 18%
    15:00 +35°C° 0 mm 1 mps 692 mmHg 19%
    16:00 +34°C° 0 mm 1 mps 691 mmHg 20%
    17:00 +31°C° 0 mm 1 mps 691 mmHg 29%
    18:00 +28°C° 0 mm 1 mps 691 mmHg 37%
    19:00 +24°C° 0 mm 1 mps 691 mmHg 46%
    20:00 +23°C° 0 mm 1 mps 692 mmHg 52%
    21:00 +22°C° 0 mm 1 mps 692 mmHg 58%
    22:00 +21°C° 0 mm 1 mps 693 mmHg 64%
    23:00 +18°C° 0 mm 0 mps 692 mmHg 68%

    22 June, Saturday

    Time Temperature Precipitation Wind Pressure Humidity
    00:00 +18°C° 0 mm 0 mps 692 mmHg 73%
    01:00 +17°C° 0 mm 0 mps 692 mmHg 78%
    02:00 +16°C° 0 mm 0 mps 692 mmHg 80%
    03:00 +16°C° 0 mm 0 mps 691 mmHg 83%
    04:00 +16°C° 0 mm 0 mps 691 mmHg 85%
    05:00 +18°C° 0 mm 1 mps 692 mmHg 83%
    06:00 +19°C° 0 mm 1 mps 692 mmHg 82%
    07:00 +19°C° 0 mm 1 mps 692 mmHg 80%
    08:00 +23°C° 0 mm 1 mps 693 mmHg 65%
    09:00 +26°C° 0 mm 1 mps 693 mmHg 51%
    10:00 +30°C° 0 mm 1 mps 694 mmHg 37%
    11:00 +31°C° 0 mm 1 mps 694 mmHg 33%
    12:00 +33°C° 0 mm 1 mps 693 mmHg 28%
    13:00 +35°C° 0 mm 1 mps 693 mmHg 24%
    14:00 +35°C° 0 mm 2 mps 692 mmHg 25%
    15:00 +34°C° 0 mm 2 mps 692 mmHg 26%
    16:00 +34°C° 0 mm 3 mps 691 mmHg 27%
    17:00 +30°C° 0 mm 2 mps 691 mmHg 35%
    18:00 +27°C° 0 mm 2 mps 691 mmHg 43%
    19:00 +24°C° 0 mm 1 mps 691 mmHg 51%
    20:00 +23°C° 0 mm 1 mps 692 mmHg 56%
    21:00 +22°C° 0 mm 1 mps 692 mmHg 61%
    22:00 +18°C° 0 mm 0 mps 692 mmHg 66%
    23:00 +18°C° 0 mm 0 mps 692 mmHg 69%

    23 June, Sunday

    Time Temperature Precipitation Wind Pressure Humidity
    00:00 +19°C° 0 mm 1 mps 692 mmHg 73%
    01:00 +19°C° 0 mm 1 mps 692 mmHg 76%
    02:00 +18°C° 0 mm 1 mps 692 mmHg 79%
    03:00 +18°C° 0 mm 1 mps 692 mmHg 82%
    04:00 +16°C° 0 mm 1 mps 692 mmHg 85%
    05:00 +18°C° 0 mm 1 mps 692 mmHg 83%
    06:00 +18°C° 0 mm 1 mps 692 mmHg 81%
    07:00 +19°C° 0 mm 1 mps 692 mmHg 80%
    08:00 +22°C° 0 mm 1 mps 693 mmHg 66%
    09:00 +25°C° 0 mm 1 mps 694 mmHg 52%
    10:00 +29°C° 0 mm 2 mps 695 mmHg 37%
    11:00 +30°C° 0 mm 2 mps 694 mmHg 34%
    12:00 +32°C° 0 mm 2 mps 694 mmHg 30%
    13:00 +34°C° 0 mm 2 mps 693 mmHg 26%
    14:00 +34°C° 0 mm 2 mps 693 mmHg 27%
    15:00 +32°C° 0 mm 2 mps 692 mmHg 28%
    16:00 +33°C° 0 mm 3 mps 692 mmHg 28%
    17:00 +29°C° 0 mm 2 mps 692 mmHg 37%
    18:00 +26°C° 0 mm 2 mps 692 mmHg 46%
    19:00 +23°C° 0 mm 1 mps 692 mmHg 55%
    20:00 +22°C° 0 mm 1 mps 692 mmHg 60%
    21:00 +20°C° 0 mm 1 mps 692 mmHg 65%
    22:00 +17°C° 0 mm 0 mps 693 mmHg 69%
    23:00 +19°C° 0 mm 1 mps 693 mmHg 73%
    Show more